Regional Weather Roundup
Issued by NWS Wakefield, VA

Home | Current Version | Previous Version | Graphics & Text | Print | Product List | Glossary On
Versions: 1 2 3 4 5 6 7 8 9 10 11 12 13 14 15 16 17 18 19 20 21 22 23 24 25 26 27 28 29 30 31 32 33 34 35 36 37 38 39 40 41 42 43 44 45 46 47 48 49
000
ASUS41 KAKQ 011615
RWRAKQ

REGIONAL WEATHER ROUNDUP
NATIONAL WEATHER SERVICE WAKEFIELD VA
1200 PM EDT SAT AUG 01 2015

Note: "fair" indicates few or no clouds below 12,000 feet with no
significant weather and/or obstructions to visibility. * = Denotes
station may not report precipitation (e.g., rain,snow,etc.),
thunder or fog.

VAZ042-051-052>054-056-011700-
NORTHERN VIRGINIA

CITY           SKY/WX    TMP DP  RH WIND       PRES   REMARKS
WASH NATIONAL  PTSUNNY   87  62  43 W8        29.90R
DULLES         PTSUNNY   83  62  49 W9        29.91R
FORT BELVOIR   MOSUNNY   85  64  49 W8        29.90R
QUANTICO       NOT AVBL
FREDERICKSBRG* SUNNY     89  65  44 CALM      29.89S
STAFFORD*      PTSUNNY   86  58  39 W6        29.95R
WARRENTON      SUNNY     85  69  58 S3        29.91S
CULPEPER*      SUNNY     83  64  53 SW3       29.92S
MANASSAS*      MOSUNNY   84  64  51 SW5       29.91R
LEESBURG*      PTSUNNY   86  68  54 W10       29.92S
WINCHESTER     SUNNY     86  55  35 W12       29.93S
FRONT ROYAL*   PTSUNNY   81  64  57 CALM      29.92S
LURAY*         FAIR      86  61  42 W9        29.94S
$$

VAZ048-049-060>072-079>083-011700-
CENTRAL AND SOUTH CENTRAL VIRGINIA

CITY           SKY/WX    TMP DP  RH WIND       PRES   REMARKS
RICHMOND       MOSUNNY   89  60  37 VRB3      29.92R
CHESTERFIELD*  FAIR      88  59  37 S7        29.94R
PETERSBURG*    SUNNY     89  68  50 SW5       29.94S
HANOVER        SUNNY     86  63  45 VRB7      29.93S
TAPPAHANNOCK*  SUNNY     86  60  40 CALM      29.92S
QUINTON*       FAIR      86  65  49 CALM      29.91S
CHARLOTTSVILLE SUNNY     84  62  47 VRB5      29.93R
GORDONSVILLE*  FAIR      84  63  48 CALM      29.92S
ORANGE*        MOSUNNY   88  64  45 CALM      29.93S
LOUISA*        PTSUNNY   86  64  48 W6        29.92R
BUMPASS*       FAIR      86  63  47 CALM      29.92R
FARMVILLE*     SUNNY     90  57  33 S5        29.93S
CREWE*         FAIR     N/A N/A N/A CALM      29.94S
FORT PICKETT*  FAIR      87  61  41 S6        29.94F
CHASE CITY*    FAIR      87  64  47 NW3       29.96S
CLARKSVILLE*   FAIR      84  63  48 CALM      29.95F
SOUTH HILL*    SUNNY     85  66  51 W5        30.01S
LAWRENCEVILLE* FAIR      86  63  45 W3        29.94S
EMPORIA*       SUNNY     86  63  45 CALM      29.95S
$$

VAZ088>098-011700-
SOUTHEAST VIRGINIA

CITY           SKY/WX    TMP DP  RH WIND       PRES   REMARKS
NORFOLK        MOSUNNY   88  63  43 SW3       29.92S
VIRGINIA BEACH PTSUNNY   91  67  44 S10       29.92S
NORFOLK NAVAL  MOSUNNY   86  68  54 SW8       29.93S
WEST POINT*    SUNNY     88  64  43 S5        29.93R
SALUDA*        FAIR      85  68  56 SE3       29.91R
NEWPORT NEWS   SUNNY     87  65  47 SW9       29.92S
LANGLEY AFB    SUNNY     87  67  52 W10       29.92S
FORT EUSTIS    SUNNY     86  63  44 VRB5      29.91R
WILLIAMSBURG*  SUNNY     91  66  43 S5        29.93S
HR EXEC AP*    FAIR      88  70  55 SW5       29.94F
FRANKLIN*      SUNNY     88  64  43 SW5       29.93S
WAKEFIELD      SUNNY     88  62  41 CALM      29.93R
$$

VAZ020-022-025-037-045-011700-
WEST CENTRAL AND SOUTHWEST VIRGINIA

CITY           SKY/WX    TMP DP  RH WIND       PRES   REMARKS
STAUNTON*      MOSUNNY   84  62  46 CALM      29.98S
WAYNESBORO*    FAIR      79  63  57 W7        29.98S
HOT SPRINGS VA MOSUNNY   71  58  62 W12       30.10R
LYNCHBURG      SUNNY     83  62  49 NW6       29.98S
DANVILLE       SUNNY     86  66  51 W6        29.97S
SOUTH BOSTON*  FAIR      85  66  52 S5        29.96S
MARTINSVILLE   SUNNY     86  57  37 N6        30.01F
ROANOKE        MOSUNNY   85  56  37 NW7       30.00S
BLACKSBURG     SUNNY     79  59  49 NW8G17    30.08S
DUBLIN*          N/A     80  57  45 W8        30.07S
MARION*        MOSUNNY   76  57  51 W9G16     30.12S
HILLSVILLE*    MOSUNNY   75  57  53 W10G17    30.08S
RICHLANDS*     PTSUNNY   74  59  59 NW9G16    30.11S
WISE*          MOSUNNY   79  52  38 NW7       30.13R
ABINGDON*      SUNNY     79  54  40 NW5       30.09S
$$

MDZ021>025-VAZ099-100-011700-
SOUTHERN MARYLAND AND THE DELMARVA PENINSULA

CITY           SKY/WX    TMP DP  RH WIND       PRES   REMARKS
PATUXENT RIVER MOSUNNY   87  66  49 SW7       29.89S
BAY BRIDGE APT   N/A     82  61  47 W6        29.89S
LEONARDTOWN    SUNNY     86  64  48 CALM      29.92R
DOVER          SUNNY     86  68  55 W12       29.86R
GEORGETOWN     SUNNY     88  64  44 SW8       29.89R
EASTON         MOSUNNY   86  66  51 NW8       29.93R
CAMBRIDGE      SUNNY     86  63  45 SW6       29.89S
SALISBURY      SUNNY     86  66  51 SW6       29.89S
OCEAN CITY     SUNNY     89  64  43 W9        29.89R
WALLOPS ISLAND SUNNY     88  69  53 SW9       29.90S
ACCOMACK*      SUNNY     86  79  79 SW10      29.91S HX  99
$$

NCZ012>017-030>032-011700-
NORTH CENTRAL AND EASTERN NORTH CAROLINA

CITY           SKY/WX    TMP DP  RH WIND       PRES   REMARKS
ROANOKE RAPIDS FAIR      88  61  40 SW8       29.94S
RALEIGH        MOSUNNY   87  61  41 CALM      29.97S
ELIZABETH CITY SUNNY     87  68  52 SW5       29.93F
AHOSKIE*       MOSUNNY   86  61  43 CALM      29.93S
EDENTON*         N/A     87  70  58 CALM      29.93F
CURRITUCK*     MOSUNNY   87  64  46 CALM      29.94S
KILL DEVIL HLS MOSUNNY   88  69  54 SE10      29.93F
MANTEO         MOSUNNY   83  73  70 S15       29.95S
CAPE HATTERAS  CLOUDY    82  72  71 S15       29.95S
TARBORO*         N/A     90  60  37 SW5       29.95S
GOLDSBORO      SUNNY     88  70  54 VRB1      29.93S
WASHINGTON     SUNNY     86  71  60 CALM      29.94S
GREENVILLE     MOSUNNY   88  64  45 N6        29.95F
NEW BERN       MOSUNNY   87  74  64 CALM      29.94S HX  95
WILMINGTON     PTSUNNY   85  75  72 SE5       29.94S
$$

VAZ048-011700-
ELSEWHERE

CITY           SKY/WX    TMP DP  RH WIND       PRES   REMARKS
HARRISBURG PA  MOSUNNY   85  56  37 W10       29.87R
BALTIMORE      MOSUNNY   85  63  47 NW10      29.89R
ANNAPOLIS      PTSUNNY   83  64  52 W7        29.88R
ANDREWS AFB    PTSUNNY   85  62  44 NW7       29.90R
PHILADELPHIA   MOSUNNY   86  58  38 W9        29.86R
HENDERSON NC   SUNNY     85  55  35 N5        29.97S
GREENSBORO     MOSUNNY   85  57  38 N6        29.99S
ROCKY MOUNT    SUNNY     91  59  33 NE5       29.94F
$$

VAZ100-011700-
MARINE

STATION/POSITION TIME  TEMP    WIND        PRES    WAVE   SWELL
                       AIR SEA DIR/SP/G            HT/PER HT/PER
                 (UTC) (F)     (DEG/KT/KT) (MB)    (FT/S) (FT/S)
BRANDYWINE LGT   1500   79 75  250/  7/  8 1011.7R
CAPE MAY NJ      1500   79 75  220/  8/ 10 1011.3R
LEWES DE         1500   83 73  300/  8/ 10 1011.5R
15NM E FENWICK I 1550   80 79  210/ 12/ 14 1012.3R   3/ 8   2/ 8
OCEAN-CITY-INLET 1500   83 72  260/  7/  8 1011.1R
WACHAPREAGUE VA  1512   86 82              1012.7R
GOOSES REEF MD   1600   84 82     CALM     1013.3R
COVE POINT MD    1500   83     300/  4/  7 1012.8R
SOLOMONS ISLAND  1500      83                N/A
BISHOPS HEAD MD  1500   80 81  250/  6/  6 1011.5R
PINEY POINT MD   1500          330/  3/  3   N/A
POTOMAC MD       1600   83 83  290/  6/  6 1011.5R   1
CAMBRIDGE MD     1500   84 84  300/  8/ 13 1011.2R
LEWISETTA VA     1500   83 82  260/  5/  6 1012.1R
RAPPAHANNOCK LGT 1500          230/  8/ 10 1013.3R
STINGRAY PT      1600   84 83  250/  6/  6 1013.0R   1
YORK RVR RNG VA  1500   82     290/  7/  8 1012.4R
YORKTOWN VA      1500   83 83  270/  5/  7 1012.7R
JAMESTOWN VA     1600   85 87     CALM       N/A
DOMINION TERM VA 1500   83     240/  6/  8 1013.0R
KIPTOPEKE VA     1500      82  220/  5/  7   N/A
CHES BAY BRIDGE  1500   81 79  260/  7/  8 1012.8R
CAPE HENRY VA    1500   85     270/  4/  9   N/A
CHESAPEAKE LGHT  1500   80     190/ 11/ 11 1014.1R
WILLOUBY STN VA  1500   81     230/  7/  7 1014.2R
CAPE HENRY BUOY  1528      81                N/A     2/ 8
1ST LANDING BUOY 1600      81              1013.0R   1/ 3
CAPE CHARLES BUO 1526      81                N/A     2/ 8   2/ 8
OFFSHORE WE BUOY 1511      82                N/A     3/ 8   3/ 8
64NM E OF VA BCH 1550   82 81  180/  8/ 10 1013.7R   3/ 8   3/ 8
DUCK PIER NC     1500   83 78  120/  8/ 10 1013.2R
44100 DUCK FRF   1524      81                N/A     2/ 8
44056 DUCK FRF   1511      79                N/A     2/ 8
OREGON INLET NC  1500   83 81  150/  9/ 13 1013.9R
HATTERAS NC      1500   78 80  130/ 10/ 14 1013.7R
DIAMOND SHLS NC  1550   78 85  170/ 16/ 17 1014.2R   4/ 8   2/ 8
CAPE LOOKOUT NC  1600   82     200/  8/  9 1013.6S
$$



USA.gov is the U.S. government's official web portal to all federal, state and local government web resources and services.